Weather Roundup
Issued by NWS Springfield, MO

Home | Current Version | Previous Version | Text Only | Print | Product List | Glossary On
Versions: 1 2 3 4 5 6 7 8 9 10 11 12 13 14 15 16 17 18 19 20 21 22 23 24 25 26 27 28 29 30 31 32 33 34 35 36 37 38 39 40 41 42 43 44 45 46 47 48 49 50
000
NZUS99 KSGF 271507
HRRSGF

HOURLY WEATHER
NATIONAL WEATHER SERVICE SPRINGFIELD MO
900 AM CST FRI FEB 27 2015

......SGF CWA......

CITY           SKY/WX    TMP DP  RH WIND       PRES   REMARKS
SPRINGFIELD    SUNNY     11   1  64 NE9       30.55R WCI  -2
JOPLIN         CLOUDY    11   1  64 NE8       30.61R WCI  -1
WEST PLAINS    SUNNY     11   0  61 NE8       30.57S WCI  -1
ROLLA          SUNNY      7  -4  60 N6        30.59S WCI  -3
OSAGE BEACH    SUNNY      9   0  66 E6        30.63R WCI  -1
BRANSON        MOSUNNY   14   3  62 E9        30.55R WCI   2

......SURROUNDING SGF CWA......

CITY           SKY/WX    TMP DP  RH WIND       PRES   REMARKS
CHANUTE        PTSUNNY   12   1  61 NE10      30.62S WCI  -1
PARSONS        CLOUDY    12   0  58 VRB7      30.63R WCI   1
COFFEYVILLE    CLOUDY    12   2  64 NE13      30.62R WCI  -3
EMPORIA        CLOUDY     8   1  73 NE8       30.61R WCI  -4
GROVE OK       CLOUDY    18   7  62 NE12      30.59F WCI   5
ROGERS AR      SUNNY     14   2  58 NE12      30.56R WCI   0
SILOAM SPRINGS MOSUNNY   16   0  48 E10       30.55S WCI   3
HARRISON AR    SUNNY     13   3  64 E9        30.54R WCI   1
NEAR YELLVILLE SUNNY     16   0  48 NE8       30.60R WCI   5

......KANSAS AND MISSOURI......

CITY           SKY/WX    TMP DP  RH WIND       PRES   REMARKS
KANSAS CTY INT PTSUNNY    7  -1  70 CALM      30.64R
DOWNTOWN KC    SUNNY     10  -2  58 CALM      30.68R
COLUMBIA       SUNNY      8  -3  61 N6        30.65S WCI  -2
SEDALIA        SUNNY      8  -1  66 CALM      30.66R
ST JOSEPH      SUNNY      6   0  76 N3        30.67R
ST LOUIS       MOSUNNY    8  -3  61 N8        30.69R WCI  -4
SPIRIT OF STL  SUNNY      8  -3  61 CALM      30.69R
KIRKSVILLE     SUNNY      4  -3  73 N3        30.65R
WICHITA        CLOUDY    13  -2  51 NE8       30.59R WCI   2
TOPEKA         MOSUNNY    9   0  67 SE3       30.67R
OLATHE         FAIR       8  -2  63 CALM      30.63R

......TENNESSEE......

CITY           SKY/WX    TMP DP  RH WIND       PRES   REMARKS
MEMPHIS        MOSUNNY   25  12  58 NE15      30.58R WCI  13
NASHVILLE      MOSUNNY   25   8  48 NE12G20   30.56R WCI  14

......ARKANSAS.......

CITY           SKY/WX    TMP DP  RH WIND       PRES   REMARKS
FAYETTEVILLE   SUNNY     15   3  59 E13       30.53R WCI   1
FT SMITH       PTSUNNY   21   4  47 E9        30.59R WCI  11
LITTLE ROCK    MOSUNNY   24   8  50 NE15      30.62R WCI  11

......OKLAHOMA.......

CITY           SKY/WX    TMP DP  RH WIND       PRES   REMARKS
TULSA          CLOUDY    16   5  62 NE7       30.61R WCI   6
PONCA CITY     CLOUDY    15   1  53 NE7       30.62R WCI   5
MCALESTER      CLOUDY    21   7  54 NE10      30.54R WCI  10
OKLAHOMA CITY  CLOUDY    19   2  47 NE12      30.55R WCI   7

......IOWA............

CITY           SKY/WX    TMP DP  RH WIND       PRES   REMARKS
DES MOINES     MOSUNNY    0  -8  69 NW5       30.64R WCI -10
QUAD CITIES    SUNNY     -4 -10  75 W6        30.64R WCI -16

......ILLINOIS........

CITY           SKY/WX    TMP DP  RH WIND       PRES   REMARKS
QUINCY         SUNNY     -1  -8  72 NW8       30.67R WCI -15
CHICAGO        SUNNY      5  -6  60 W7        30.57R WCI  -7



USA.gov is the U.S. government's official web portal to all federal, state and local government web resources and services.